sat.trackr.live / text

‹ back to catalog

STARLINK-5525

NORAD 57218 · 2023-094A

PAYLOAD ACTIVE UNKNOWN

§ Identity

Operator
Country
US
Launch date
2023-07-07
Launch site
AFWTR
Launch vehicle
Mass (kg)
RCS (m²)

Purposes: comms

External: N2YO · Heavens-Above · Gunter

§ Orbital elements

Epoch: 2026-05-25T04:05:48.943104Z

Period
94.27 min
Inclination
43.0002°
Eccentricity
0.0001107
Mean motion
15.27576299 rev/d
Perigee alt
482.3 km
Apogee alt
483.8 km
Semi-major
6,861.2 km
B*
1.1141e-5
RAAN
318.6851°
Arg perigee
259.9055°
Mean anomaly
100.1672°
Rev number
15,881

§ Raw data

STARLINK-55251 57218U 23094A   26145.17070536  .00000045  00000+0  11141-4 0  99982 57218  43.0002 318.6851 0001107 259.9055 100.1672 15.27576299158813

JSON: /api/v1/satellites/57218 · /tle

For live sub-satellite position, see the globe view (requires WebGL).

§ Visibility from observer

Set your observer location to see the next 7 days of passes ≥ 10°. The values pass through the URL so the page stays shareable.

No JS? Fill the form by hand. The geolocation button needs JavaScript.